Welcome to our new website - Welkom op onze vernieuwde website - Bienvenue sur notre nouveau site web - Willkommen auf unserer neuen Website


Onweer radar Meer informatie blitzortung!


Regen radar Meer informatie rain snow radar


Andere websites:

Onze vorige site

Leuven Template



Select another period ( hide this area )

Eenheden Periode Custom range Directly to
Metrisch Engels Beide
Dagelijkse Wekelijkse Maandelijkse Jaarlijkse
use both date-selectors for a custom range
previous Dag
With this date

WeatherUnderground graphs for this period ( click here )


Dagelijkse Samenvatting Maandag 17 februari 2020
Tijd Temp. ( °C ) Dew pt. ( °C ) Wind ( km/h ) van Windvlaag ( km/h ) Luchtdruk ( hPa ) Humid.( % ) Rainrate ( cm )
Hoog8,6 6,3 22,5 WZW ( 148/367 ) 35,4 1006,2 87 -
Gemiddeld7,4 4,1 10,2 WZW #15/36 27,0 1003,5 80 -
Laag6,5 3,0 3,2   20,9 999,6 75 -
Dagelijkse Tabular details for Maandag 17 februari 2020
Tijd Temp. ( °C ) Dew pt. ( °C ) Wind ( km/h ) van Windvlaag ( km/h ) Luchtdruk ( hPa ) Humid.( % ) Rainrate ( cm )
00:00 8,3 6,3 6,4 WZW 20,9 999,6 87 -
00:15 8,2 6,0 11,3 ZW 20,9 999,9 86 -
00:30 8,4 6,0 11,3 Zuiden 32,2 1000,0 85 -
00:45 8,3 5,8 4,8 WZW 24,1 1000,2 84 -
01:00 8,6 5,8 11,3 Noorden 32,2 1000,5 83 -
01:15 8,4 5,5 12,9 WNW 33,8 1000,7 82 -
01:30 8,1 5,2 14,5 Westen 33,8 1000,7 82 -
01:45 8,0 4,9 11,3 WZW 27,4 1001,0 81 -
02:00 7,9 4,8 9,7 WZW 25,7 1001,2 81 -
02:15 8,1 4,8 8,0 WZW 25,7 1001,3 80 -
02:30 8,3 4,7 6,4 WZW 35,4 1001,6 78 -
02:45 8,2 4,4 9,7 ZZW 27,4 1001,9 77 -
03:00 8,1 3,9 9,7 WZW 29,0 1002,2 75 -
03:15 8,0 3,8 12,9 ZZO 29,0 1002,7 75 -
03:30 7,5 3,7 12,9 WZW 25,7 1003,0 77 -
03:45 7,3 3,7 3,2 WNW 27,4 1003,5 78 -
04:00 7,3 3,7 9,7 ZW 33,8 1003,8 78 -
04:15 7,2 3,8 6,4 Westen 24,1 1003,8 79 -
04:30 7,1 3,7 4,8 Westen 29,0 1004,3 79 -
04:45 7,0 3,8 6,4 WZW 20,9 1004,4 80 -
05:00 6,9 3,7 8,0 WZW 29,0 1004,8 80 -
05:15 6,9 3,5 22,5 WZW 27,4 1005,0 79 -
05:30 6,8 3,4 12,9 ZZW 27,4 1005,1 79 -
05:45 6,9 3,3 3,2 WNW 33,8 1005,4 78 -
06:00 6,8 3,4 9,7 WZW 20,9 1005,4 79 -
06:15 6,8 3,4 11,3 WZW 24,1 1005,4 79 -
06:30 6,7 3,5 16,1 ZW 25,7 1005,4 80 -
06:45 6,8 3,6 12,9 WZW 30,6 1005,4 80 -
07:00 6,7 3,3 9,7 ZW 25,7 1005,6 79 -
07:15 6,7 3,3 11,3 WNW 20,9 1005,5 79 -
07:30 6,7 3,2 9,7 ZW 27,4 1005,6 78 -
07:45 6,6 3,0 12,9 ZZW 20,9 1005,7 78 -
08:00 6,6 3,2 11,3 ZW 20,9 1005,8 79 -
08:15 6,5 3,1 11,3 Zuiden 24,1 1005,8 79 -
08:30 6,6 3,5 8,0 WZW 27,4 1006,0 81 -
08:45 6,6 3,9 12,9 ZW 27,4 1006,2 83 -
Dagelijkse Samenvatting Maandag 17 februari 2020
Tijd Temp. ( °C ) Dew pt. ( °C ) Wind ( km/h ) van Windvlaag ( km/h ) Luchtdruk ( hPa ) Humid.( % ) Rainrate ( cm )
Hoog8,6 6,3 22,5 WZW ( 148/367 ) 35,4 1006,2 87 -
Gemiddeld7,4 4,1 10,2 WZW #15/36 27,0 1003,5 80 -
Laag6,5 3,0 3,2   20,9 999,6 75 -
Dagelijkse Tabular details for Maandag 17 februari 2020
Tijd Temp. ( °C ) Dew pt. ( °C ) Wind ( km/h ) van Windvlaag ( km/h ) Luchtdruk ( hPa ) Humid.( % ) Rainrate ( cm )
00:00 8,3 6,3 6,4 WZW 20,9 999,6 87 -
00:15 8,2 6,0 11,3 ZW 20,9 999,9 86 -
00:30 8,4 6,0 11,3 Zuiden 32,2 1000,0 85 -
00:45 8,3 5,8 4,8 WZW 24,1 1000,2 84 -
01:00 8,6 5,8 11,3 Noorden 32,2 1000,5 83 -
01:15 8,4 5,5 12,9 WNW 33,8 1000,7 82 -
01:30 8,1 5,2 14,5 Westen 33,8 1000,7 82 -
01:45 8,0 4,9 11,3 WZW 27,4 1001,0 81 -
02:00 7,9 4,8 9,7 WZW 25,7 1001,2 81 -
02:15 8,1 4,8 8,0 WZW 25,7 1001,3 80 -
02:30 8,3 4,7 6,4 WZW 35,4 1001,6 78 -
02:45 8,2 4,4 9,7 ZZW 27,4 1001,9 77 -
03:00 8,1 3,9 9,7 WZW 29,0 1002,2 75 -
03:15 8,0 3,8 12,9 ZZO 29,0 1002,7 75 -
03:30 7,5 3,7 12,9 WZW 25,7 1003,0 77 -
03:45 7,3 3,7 3,2 WNW 27,4 1003,5 78 -
04:00 7,3 3,7 9,7 ZW 33,8 1003,8 78 -
04:15 7,2 3,8 6,4 Westen 24,1 1003,8 79 -
04:30 7,1 3,7 4,8 Westen 29,0 1004,3 79 -
04:45 7,0 3,8 6,4 WZW 20,9 1004,4 80 -
05:00 6,9 3,7 8,0 WZW 29,0 1004,8 80 -
05:15 6,9 3,5 22,5 WZW 27,4 1005,0 79 -
05:30 6,8 3,4 12,9 ZZW 27,4 1005,1 79 -
05:45 6,9 3,3 3,2 WNW 33,8 1005,4 78 -
06:00 6,8 3,4 9,7 WZW 20,9 1005,4 79 -
06:15 6,8 3,4 11,3 WZW 24,1 1005,4 79 -
06:30 6,7 3,5 16,1 ZW 25,7 1005,4 80 -
06:45 6,8 3,6 12,9 WZW 30,6 1005,4 80 -
07:00 6,7 3,3 9,7 ZW 25,7 1005,6 79 -
07:15 6,7 3,3 11,3 WNW 20,9 1005,5 79 -
07:30 6,7 3,2 9,7 ZW 27,4 1005,6 78 -
07:45 6,6 3,0 12,9 ZZW 20,9 1005,7 78 -
08:00 6,6 3,2 11,3 ZW 20,9 1005,8 79 -
08:15 6,5 3,1 11,3 Zuiden 24,1 1005,8 79 -
08:30 6,6 3,5 8,0 WZW 27,4 1006,0 81 -
08:45 6,6 3,9 12,9 ZW 27,4 1006,2 83 -

Download your copy of this data-set  here

Our weather-data as stored at Weather Underground. Script ontwikkeld door Jim McMurry. Aangepast voor de template door Leuven-Template.eu

U vindt ons ook hier:

European Weather Network

Weather Underground

AWEKAS

Apparatuur in gebruik:

Weerstation
Davis VP2

Weerprogramma
Cumulus

Davis VP2

Cumulus